Regional Weather Roundup
Issued by NWS

Home | Current Version | Previous Version | Text Only | Print | Product List | Glossary On
Versions: 1 2 3 4 5 6 7 8 9 10 11 12 13 14 15 16 17 18 19 20 21 22 23 24 25 26 27 28 29 30 31 32 33 34 35 36 37 38 39 40 41 42 43 44 45 46 47 48 49 50
000
ASUS46 KPQR 100110
RWROR

OREGON REGIONAL WEATHER ROUNDUP
NATIONAL WEATHER SERVICE PORTLAND OR
600 PM PDT WED JUL 09 2014

NOTE: "FAIR" INDICATES FEW OR NO CLOUDS BELOW 12,000 FEET WITH
NO SIGNIFICANT WEATHER AND/OR OBSTRUCTIONS TO VISIBILITY.

ORZ001>013-100200-
NORTHWEST OREGON


CITY           SKY/WX    TMP DP  RH WIND       PRES   REMARKS
ASTORIA        CLOUDY    62  53  72 NW13      30.03F
NEWPORT        SUNNY     59  54  82 N16G28    30.03S
PORTLAND       MOSUNNY   82  56  40 NW10      29.90F
VANCOUVER WA   SUNNY     81  56  42 VRB7      29.90F
SCAPPOOSE      SUNNY     81  56  42 N12       29.91F
HILLSBORO      SUNNY     82  49  31 NW16      29.91F
AURORA         SUNNY     85  52  32 N8        29.90F
MCMINNVILLE    SUNNY     87  53  31 N8        29.90F
SALEM          SUNNY     87  55  33 NW12      29.88F
CORVALLIS      MOSUNNY   82  57  42 NW17      29.91F
EUGENE         MOSUNNY   89  47  23 N14       29.89F
$$

ORZ021-028-100200-
SOUTHWEST OREGON


CITY           SKY/WX    TMP DP  RH WIND       PRES   REMARKS
NORTH BEND     MOSUNNY   63  55  77 N28G38    29.97F
BROOKINGS      CLEAR     64  56  75 S6        29.90F
ROSEBURG       SUNNY     93  45  19 N14       29.85F
SEXTON SUMMIT  SUNNY     79  49  34 VRB7      30.00F
MEDFORD        SUNNY     98  54  22 N16G22    29.80S HX  96
$$

ORZ009-041-100200-
COLUMBIA GORGE


CITY           SKY/WX    TMP DP  RH WIND       PRES   REMARKS
TROUTDALE      SUNNY     83  51  33 NW5       29.89F
THE DALLES     SUNNY     91  53  27 NW18G24   29.75F
$$

ORZ029>031-042>050-061>064-100200-
EASTERN OREGON


CITY           SKY/WX    TMP DP  RH WIND       PRES   REMARKS
REDMOND        SUNNY     92  36  14 N16       29.90S
BEND           CLEAR     90  41  18 NW12G24   29.94R
KLAMATH FALLS  CLOUDY    72  56  57 SW15G22   30.00R
LAKEVIEW       CLOUDY    75  50  41 SW10      30.07R
HERMISTON      SUNNY     98  44  15 W6        29.71F HX  94
PENDLETON      SUNNY     95  35  12 NW14G22   29.77F HX  90
JOHN DAY       CLOUDY    79  61  53 SE12G20   29.96F
MEACHAM        SUNNY     85  38  18 CALM      29.95F
LA GRANDE      MOSUNNY   91  46  21 NW9       29.85F
BAKER CITY     CLOUDY    77  54  44 S20       29.93S
BURNS          LGT RAIN  70  55  59 SW8       30.05R
ROME             N/A     88  46  23 NW8       29.96F
ONTARIO        MOSUNNY   87  54  32 CALM      29.88F
$$



USA.gov is the U.S. government's official web portal to all federal, state and local government web resources and services.